Regional Weather Roundup
Issued by NWS Charleston, SC

Current Version | Previous Version | Graphics & Text | Print | Product List | Glossary On
Versions: 1 2 3 4 5 6 7 8 9 10 11 12 13 14 15 16 17 18 19 20 21 22 23 24 25 26 27 28 29 30 31 32 33 34 35 36 37 38 39 40 41 42 43 44 45 46 47 48 49 50
000
ASUS42 KCHS 241428
RWRCHS

REGIONAL WEATHER ROUNDUP
NATIONAL WEATHER SERVICE CHARLESTON SC
1000 AM EDT TUE MAY 24 2016

NOTE: "FAIR" INDICATES FEW OR NO CLOUDS BELOW 12,000 FEET WITH NO
SIGNIFICANT WEATHER AND/OR OBSTRUCTIONS TO VISIBILITY.

NOT ALL STATIONS ARE QUALITY CONTROLLED. USE DATA WITH CAUTION...
ESPECIALLY DEWPOINT OBSERVATIONS.

SCZ027-030-031-034>040-042>050-241500-
...SOUTHEAST SOUTH CAROLINA...

CITY           SKY/WX    TMP DP  RH WIND       PRES   REMARKS
N CHARLESTON   MOSUNNY   74  52  46 CALM      30.16S
WATERFRONT PRK   N/A     74  55  51 CALM      30.14R
MOUNT PLEASANT FAIR      73  52  46 CALM      30.17S
JOHNS ISLAND   FAIR      75  55  50 CALM      30.17R
PINOPOLIS        N/A     75  54  46 VRB2      30.08R
MONCKS CORNER  FAIR      72  46  40 CALM      30.17S
SUMMERVILLE    FAIR      72  55  56 CALM      30.18S
BEAUFORT MCAS  MOSUNNY   74  58  57 E6        30.16R
BEAUFORT ARPT  FAIR      75  59  57 NE5       30.16R
HILTON HEAD IS SUNNY     77  63  61 NE6       30.17
WALTERBORO     MOSUNNY   77  54  44 CALM      30.17S
ALLENDALE      FAIR      73  57  56 E5        30.16S

...SOUTHERN MIDLANDS AND PEE DEE...

CITY           SKY/WX    TMP DP  RH WIND       PRES   REMARKS
GEORGETOWN     FAIR      72  50  46 SW3       30.17S
KINGSTREE      FAIR      70  50  49 SW3       30.17S
ORANGEBURG     PTSUNNY   74  52  46 CALM      30.17R
BARNWELL       FAIR      75  59  57 CALM      30.17S
AIKEN          FAIR      72  55  56 SE3       30.19S
MANNING        FAIR      70  52  52 S5        30.18R
COLUMBIA       MOSUNNY   74  57  55 VRB3      30.16S
SUMTER         SUNNY     70  54  55 SW3       30.15S
FLORENCE       SUNNY     72  52  49 W5        30.16S
MYRTLE BEACH   SUNNY     72  52  49 VRB5      30.17
N MYRTLE BEACH SUNNY     72  53  51 NW5       30.15S

$$

GAZ063-065-086>088-099>101-113>116-118-119-134>141-150-241500-
...SOUTHEAST GEORGIA...

CITY           SKY/WX    TMP DP  RH WIND       PRES   REMARKS
SAVANNAH ARPT  MOSUNNY   77  61  57 E5        30.15R
HUNTER AAF     NOT AVBL
FORT STEWART   NOT AVBL
STATESBORO     SUNNY     76  64  64 S3        30.15S
SYLVANIA       SUNNY     77  63  61 S3        30.17R
CLAXTON        FAIR      76  64  65 CALM      30.15S

...CSRA...CENTRAL AND FAR SOUTHEAST GEORGIA...

CITY           SKY/WX    TMP DP  RH WIND       PRES   REMARKS
THOMSON        SUNNY     74  61  65 CALM      30.20R
AUGUSTA-BUSH   SUNNY     72  57  59 SE6       30.15R
AUGUSTA-DANIEL SUNNY     73  55  53 SE7       30.17R
SWAINSBORO     FAIR      77  57  50 SW7       30.16R
VIDALIA        SUNNY     77  59  53 W9        30.16R
EASTMAN        FAIR      79  60  52 CALM      30.17S
HAZLEHURST     FAIR      78  60  52 CALM      30.14R
ALMA           SUNNY     76  58  53 S6        30.14R
WAYCROSS       SUNNY     81  59  47 SW6       30.14R
JESUP          FAIR      73  59  60 CALM      30.14S
BAXLEY         FAIR      79  59  50 SW5       30.14S
BRUNSWICK      SUNNY     81  63  54 CALM      30.14S
SAINT SIMONS   SUNNY     79  63  57 VRB3      30.13R

$$

SCZ027-028-034-036>038-045-046-048>050-GAZ119-141-241500-
...LAKE AND SUPPLEMENTAL COASTAL OBSERVATIONS...

STATION/POSITION TIME  TEMP    WIND        PRES    WAVE   SWELL
                       AIR SEA DIR/SP/G            HT/PER HT/PER/DIR
                 (UTC) (F)     (DEG/KT/KT) (MB)    (FT/S) (FT/S/D)
WINYAH BAY       1345   70     350/  2     1020.0R
LAKE MURRAY      1300   69     190/  3/  6 1021.0R
ACE BASIN NERRS  1300   71      40/  1     1021.0R
FORT PULASKI     1400   73 75   70/ 10/ 11 1021.4R
SAPELO ISLAND    1400   80        CALM     1021.0R

$$

ANZ835-935-AMZ111-154-330-350-352-354-370-450-454-472-241500-
...C-MAN AND BUOY OBSERVATIONS...

STATION/POSITION TIME  TEMP    WIND        PRES    WAVE   SWELL
                       AIR SEA DIR/SP/G            HT/PER HT/PER/DIR
                 (UTC) (F)     (DEG/KT/KT) (MB)    (FT/S) (FT/S/D)
BUOY 41004       1350   71 75  350/  4/  6 1021.0R   2/ 8   2/ 8
BUOY 41008       1350   76 76   70/  2/  4 1020.7R   2/ 9   2/110/ 9
FOLLY BEACH CMAN 1400   72      50/  5/  5 1021.5R
CAPERS NEARSHORE 1408   72 74   20/  2/  2 1021.2R
FRIPP NEARSHORE  1408   73 75   80/  8/ 10 1020.6R


STATION/POSITION TIME  TEMP    WIND        PRES    WAVE   SWELL
                       AIR SEA DIR/SP/G            HT/PER HT/PER/DIR
                 (UTC) (F)     (DEG/KT/KT) (MB)    (FT/S) (FT/S/D)
5E ST. MARYS GA  1321      77                N/A     2/ 9
FRYING PAN BUOY  1400   69 76  330/ 10/ 14 1020.6R
BUOY 41025       1350   65 68  280/ 12/ 16 1018.9R   4/ 9   3/ 80/ 9
CAPE LOOKOUT NC  1400   68     290/ 10/ 13 1019.7R
BUOY 41002       1350   74 78  290/ 12/ 16 1019.6R   4/ 6   3/350/ 6
BUOY 41010       1320   77 78   60/  6/  8 1019.9R
ST AUGUSTINE FL  1400   77 78  120/  7/  8 1021.1R


$$



USA.gov is the U.S. government's official web portal to all federal, state and local government web resources and services.